This demonstration page uses our WeatherBlox Daily Observations layout. Learn more.

36.17497, -115.13722

Hourly Observations for March 19, 2018

Temp ( °F °C ) Dew Point ( °F °C ) Humidity (%) Winds ( mph kmh ) Pressure ( in mb ) Visibility ( mi km ) Precip ( " mm )
12:53 am 00:53 Clear 51 10.6 16 -8.9 25 25 N 6 9 30.15 1021 10 16.0934 0 0
1:53 am 01:53 Clear 51 10.6 15 -9.4 24 24 N 6 9 30.15 1021 10 16.0934 0 0
2:53 am 02:53 Clear 51 10.6 13 -10.6 22 22 SW 3 6 30.15 1021 10 16.0934 0 0
3:53 am 03:53 Clear 50 10 16 -8.9 26 26 SSW 3 6 30.14 1021 10 16.0934 0 0
4:53 am 04:53 Clear 50 10 15 -9.4 25 25 S 6 9 30.15 1021 10 16.0934 0 0
5:53 am 05:53 Clear 48 8.9 16 -8.9 28 28 SW 3 6 30.16 1021 10 16.0934 0 0
6:53 am 06:53 Sunny 46 7.8 17 -8.3 31 31 N 6 9 30.18 1022 10 16.0934 0 0
7:53 am 07:53 Sunny 50 10 16 -8.9 26 26 Calm 30.2 1023 10 16.0934 0 0
8:53 am 08:53 Sunny 54 12.2 13 -10.6 19 19 NNW 3 6 30.21 1023 10 16.0934 0 0
9:53 am 09:53 Sunny 56 13.3 13 -10.6 18 18 SE 5 7 30.22 1023 10 16.0934 0 0
10:53 am 10:53 Sunny 58 14.4 12 -11.1 16 16 E 5 7 30.21 1023 10 16.0934 0 0
11:53 am 11:53 Sunny 60 15.6 13 -10.6 16 16 E 7 11 30.19 1022 10 16.0934 0 0
12:53 pm 12:53 Sunny 60 15.6 11 -11.7 14 14 Calm 30.18 1022 10 16.0934 0 0
1:53 pm 13:53 Sunny 61 16.1 9 -12.8 13 13 VRB 5 7 30.15 1021 10 16.0934 0 0
2:53 pm 14:53 Sunny 63 17.2 11 -11.7 13 13 SE 10 17 30.12 1020 10 16.0934 0 0
3:53 pm 15:53 Sunny 64 17.8 10 -12.2 12 12 E 5 7 30.11 1020 10 16.0934 0 0
4:53 pm 16:53 Sunny 64 17.8 10 -12.2 12 12 Calm 30.09 1019 10 16.0934 0 0
5:53 pm 17:53 Sunny 63 17.2 10 -12.2 12 12 E 5 7 30.08 1019 10 16.0934 0 0
6:53 pm 18:53 Clear 60 15.6 12 -11.1 15 15 ESE 6 9 30.1 1019 10 16.0934 0 0
7:53 pm 19:53 Clear 58 14.4 14 -10 18 18 ESE 6 9 30.11 1020 10 16.0934 0 0
8:53 pm 20:53 Clear 58 14.4 16 -8.9 19 19 ENE 3 6 30.11 1020 10 16.0934 0 0
9:53 pm 21:53 Clear 56 13.3 18 -7.8 22 22 WNW 6 9 30.13 1020 10 16.0934 0 0
10:53 pm 22:53 Clear 53 11.7 21 -6.1 28 28 WNW 6 9 30.13 1020 10 16.0934 0 0
11:53 pm 23:53 Clear 52 11.1 21 -6.1 30 30 NW 8 13 30.12 1020 10 16.0934 0 0

Powered by AerisWeather